San Jose, Costa Rica

7:09 AM CST on February 24, 2018 (GMT -0600)
Juan Santamaria International

Weather History for MROC - December, 2013

Change the Weather History Date:

Sunday, December 29, 2013

  Actual Average Record
Temperature  
Mean Temperature 76 °F -  
Max Temperature 86 °F 80 °F 88 °F (2015)
Min Temperature 65 °F 63 °F 60 °F (1997)
Cooling Degree Days 10    
Growing Degree Days 26 (Base 50)    
Moisture  
Dew Point 60 °F    
Average Humidity 59    
Maximum Humidity 73    
Minimum Humidity 31    
Precipitation  
Precipitation 0.00 in 0.01 in - ()
Sea Level Pressure  
Sea Level Pressure 29.92 in    
Wind  
Wind Speed 12 mph ()    
Max Wind Speed 18 mph    
Max Gust Speed 25 mph    
Visibility 7.8 miles    
Events      
Averages and records for this station are not official NWS values.
T = Trace of Precipitation, MM = Missing Value Source: Averaged Metar Reports

Daily Weather History Graph

Daily Weather History Graph

Search for Another Location

Airport or City:

Trip Planner

Search our weather history database for the weather conditions in past years. The results will help you decide how hot, cold, wet, or windy it might be!

Date:

Astronomy

Dec. 29, 2013 Rise Set
Actual Time 5:52 AM CST 5:25 PM CST
Civil Twilight 5:29 AM CST 5:48 PM CST
Nautical Twilight 5:03 AM CST 6:14 PM CST
Astronomical Twilight 4:37 AM CST 6:40 PM CST
Moon 2:50 AM CST (12/29) 2:50 PM CST (12/29)
Length of Visible Light 12h 18m
Length of Day
11h 32m
Waning Crescent, 11% of the Moon is Illuminated
Dec 29
Waning Crescent
Jan 1
New
Jan 7
First Quarter
Jan 15
Full
Jan 23
Last Quarter

Hourly Weather History & Observations

Time (CST) Temp. Heat Index Dew Point Humidity Pressure Visibility Wind Dir Wind Speed Gust Speed Precip Events Conditions
12:00 AM 70 °F - 60 °F 61% 29.80 in 12 mi ESE 16.1 mph - -  
12:00 AM 69.8 °F - 59.0 °F 68% 29.96 in - ESE 16.1 mph - N/A   Clear
1:00 AM 68.0 °F - 59.0 °F 73% 29.96 in - ENE 10.4 mph - N/A   Clear
2:00 AM 69.8 °F - 59.0 °F 68% 29.94 in - East 15.0 mph - N/A   Clear
3:00 AM 69 °F - 59 °F 62% 29.76 in 12 mi East 16.1 mph - -  
3:00 AM 69.8 °F - 59.0 °F 68% 29.92 in - East 16.1 mph - N/A   Clear
4:00 AM 69.8 °F - 59.0 °F 68% 29.93 in - ESE 18.4 mph - N/A   Clear
5:00 AM 68.0 °F - 59.0 °F 73% 29.94 in - NE 9.2 mph - N/A   Clear
6:00 AM 69 °F - 59 °F 64% 29.82 in 12 mi ESE 13.8 mph - -   Scattered Clouds
6:00 AM 69.8 °F - 59.0 °F 68% 29.95 in 6.2 mi ESE 13.8 mph - N/A   Partly Cloudy
7:00 AM 73.4 °F - 60.8 °F 65% 29.99 in 6.2 mi NE 4.6 mph - N/A   Partly Cloudy
8:00 AM 75.2 °F - 62.6 °F 65% 30.00 in 6.2 mi East 11.5 mph - N/A   Partly Cloudy
9:00 AM 84 °F - 58 °F 31% 29.73 in 12 mi ENE 13.8 mph - -   Scattered Clouds
9:00 AM 78.8 °F - 60.8 °F 54% 30.01 in 6.2 mi East 11.5 mph 23.0 mph N/A   Partly Cloudy
10:00 AM 78.8 °F - 60.8 °F 54% 30.00 in 6.2 mi East 12.7 mph 24.2 mph N/A   Partly Cloudy
11:00 AM 80.6 °F 81.8 °F 62.6 °F 54% 29.99 in 6.2 mi East 13.8 mph 25.3 mph N/A   Partly Cloudy
12:00 PM 82 °F - 58 °F 34% 29.79 in 12 mi East 12.7 mph - -   Scattered Clouds
12:00 PM 82.4 °F 82.5 °F 59.0 °F 45% 29.95 in 6.2 mi East 12.7 mph 24.2 mph N/A   Partly Cloudy
1:00 PM 86.0 °F 84.9 °F 57.2 °F 37% 29.93 in 6.2 mi East 11.5 mph 23.0 mph N/A   Partly Cloudy
2:00 PM 84.2 °F 83.5 °F 57.2 °F 40% 29.90 in 6.2 mi East 12.7 mph 24.2 mph N/A   Partly Cloudy
3:00 PM 84.2 °F 83.8 °F 59.0 °F 42% 29.89 in 6.2 mi ENE 13.8 mph - N/A   Partly Cloudy
4:00 PM 82.4 °F 82.5 °F 59.0 °F 45% 29.90 in 6.2 mi East 11.5 mph - N/A   Partly Cloudy
5:00 PM 78.8 °F - 60.8 °F 54% 29.91 in 6.2 mi East 15.0 mph - N/A   Partly Cloudy
6:00 PM 74 °F - 62 °F 59% 29.81 in 12 mi East 13.8 mph - -   Scattered Clouds
6:00 PM 73.4 °F - 62.6 °F 69% 29.93 in 6.2 mi East 13.8 mph - N/A   Partly Cloudy
7:00 PM 73.4 °F - 62.6 °F 69% 29.96 in 6.2 mi ENE 11.5 mph - N/A   Partly Cloudy
8:00 PM 71.6 °F - 62.6 °F 73% 29.98 in 6.2 mi ESE 13.8 mph - N/A   Partly Cloudy
9:00 PM 72 °F - 61 °F 61% 29.85 in 12 mi East 5.8 mph - -   Scattered Clouds
9:00 PM 71.6 °F - 60.8 °F 69% 29.99 in 6.2 mi East 5.8 mph - N/A   Partly Cloudy
10:00 PM 71.6 °F - 60.8 °F 69% 30.00 in 6.2 mi East 8.1 mph - N/A   Partly Cloudy
11:00 PM 71.6 °F - 60.8 °F 69% 29.99 in 6.2 mi East 10.4 mph - N/A   Partly Cloudy